Weather History for Brno, Czech Republic

Change the Weather History Date:

Wednesday, January 23, 2013

  Actual Average Record
Temperature  
Mean Temperature 22 °F -  
Max Temperature 24 °F 37 °F - ()
Min Temperature 20 °F 25 °F - ()
Degree Days  
Heating Degree Days 43    
Moisture  
Dew Point 18 °F    
Average Humidity 81    
Maximum Humidity 86    
Minimum Humidity 65    
Precipitation  
Precipitation 0.00 in 0.03 in - ()
Sea Level Pressure  
Sea Level Pressure 29.77 in    
Wind  
Wind Speed 5 mph ()    
Max Wind Speed 8 mph    
Max Gust Speed -    
Visibility 2.1 miles    
Events Snow    
T = Trace of Precipitation, MM = Missing Value Source: Averaged Metar Reports

Daily Weather History Graph

Daily Weather History Graph

Search for Another Location

Airport:

Trip Planner

Search our weather history database for the weather conditions in past years. The results will help you decide how hot, cold, wet, or windy it might be!

Date:

Astronomy

Jan. 23, 2013 Rise Set
Actual Time 7:35 AM CET 4:35 PM CET
Civil Twilight 7:00 AM CET 5:10 PM CET
Nautical Twilight 6:21 AM CET 5:49 PM CET
Astronomical Twilight 5:43 AM CET 6:27 PM CET
Moon 1:26 PM CET (1/23) 4:36 AM CET (1/23)
Length of Visible Light 10h 10m
Length of Day
9h 00m
Waxing Gibbous, 87% of the Moon is Illuminated
Jan 23
Waxing Gibbous
Jan 27
Full
Feb 3
Last Quarter
Feb 10
New
Feb 17
First Quarter

Hourly Weather History & Observations

Time (CET) Temp. Windchill Dew Point Humidity Pressure Visibility Wind Dir Wind Speed Gust Speed Precip Events Conditions
12:00 AM 21.2 °F 11.7 °F 15.8 °F 80% 29.71 in 2.2 mi NE 8.1 mph - N/A   Mist
12:30 AM 21.2 °F 12.6 °F 15.8 °F 80% 29.71 in 2.2 mi ENE 6.9 mph - N/A   Mist
1:00 AM 21 °F - 15 °F 70% 29.80 in 2 mi ENE 4.5 mph - -   Mist
1:00 AM 21.2 °F 14.9 °F 15.8 °F 80% 29.71 in - ENE 4.6 mph - N/A   Mostly Cloudy
1:30 AM 21.2 °F 14.9 °F 15.8 °F 80% 29.74 in - East 4.6 mph - N/A   Overcast
2:00 AM 21.2 °F 12.6 °F 17.6 °F 86% 29.74 in - ENE 6.9 mph - N/A   Mostly Cloudy
2:30 AM 21.2 °F 16.4 °F 17.6 °F 86% 29.74 in - East 3.5 mph - N/A   Overcast
3:00 AM 21.2 °F 14.9 °F 17.6 °F 86% 29.74 in 2.2 mi East 4.6 mph - N/A   Overcast
3:30 AM 21.2 °F 14.9 °F 15.8 °F 80% 29.74 in 2.2 mi NE 4.6 mph - N/A   Overcast
4:00 AM 21.2 °F 14.9 °F 17.6 °F 86% 29.74 in 2.5 mi ENE 4.6 mph - N/A   Overcast
4:30 AM 21.2 °F 16.4 °F 17.6 °F 86% 29.74 in 2.5 mi East 3.5 mph - N/A   Overcast
5:00 AM 21.2 °F - 17.6 °F 86% 29.74 in 2.5 mi East 2.3 mph - N/A   Mostly Cloudy
5:30 AM 21.2 °F - 17.6 °F 86% 29.74 in 2.8 mi East 2.3 mph - N/A   Mist
6:00 AM 21.2 °F 16.4 °F 17.6 °F 86% 29.74 in 2.8 mi ENE 3.5 mph - N/A   Mist
6:30 AM 21.2 °F 16.4 °F 17.6 °F 86% 29.74 in 2.8 mi East 3.5 mph - N/A   Mostly Cloudy
7:00 AM 21 °F - 15 °F 70% 29.83 in 2 mi East 6.7 mph - -   Mist
7:00 AM 21.2 °F 14.9 °F 17.6 °F 86% 29.74 in 2.2 mi East 4.6 mph - N/A   Mostly Cloudy
7:30 AM 21.2 °F 13.6 °F 15.8 °F 80% 29.74 in 2.2 mi East 5.8 mph - N/A   Overcast
8:00 AM 21.2 °F 11.7 °F 15.8 °F 80% 29.77 in - ENE 8.1 mph - N/A   Overcast
8:30 AM 21.2 °F 12.6 °F 15.8 °F 80% 29.77 in - East 6.9 mph - N/A   Overcast
8:40 AM 21.2 °F 11.7 °F 15.8 °F 80% 29.77 in - ENE 8.1 mph - N/A Snow Light Snow
8:46 AM 21.2 °F 11.7 °F 15.8 °F 80% 29.77 in - ENE 8.1 mph - N/A Snow Light Snow
9:00 AM 21.2 °F 11.7 °F 15.8 °F 80% 29.77 in - ENE 8.1 mph - N/A Snow Light Snow
9:30 AM 21.2 °F 12.6 °F 15.8 °F 80% 29.77 in 1.7 mi ENE 6.9 mph - N/A Snow Light Snow
10:00 AM 21.2 °F 12.6 °F 15.8 °F 80% 29.77 in 1.7 mi ENE 6.9 mph - N/A   Overcast
10:30 AM 21.2 °F 12.6 °F 17.6 °F 86% 29.77 in 1.7 mi East 6.9 mph - N/A   Overcast
11:00 AM 21.2 °F 13.6 °F 17.6 °F 86% 29.77 in 1.7 mi ENE 5.8 mph - N/A   Overcast
11:30 AM 21.2 °F 13.6 °F 17.6 °F 86% 29.77 in 1.9 mi East 5.8 mph - N/A   Overcast
12:00 PM 23.0 °F 15.8 °F 17.6 °F 80% 29.77 in 2.2 mi East 5.8 mph - N/A   Scattered Clouds
12:30 PM 23.0 °F 18.4 °F 17.6 °F 80% 29.77 in 2.2 mi East 3.5 mph - N/A   Mostly Cloudy
1:00 PM 24 °F - 17 °F 65% 29.85 in 2 mi ENE 2.2 mph - -   Mist
1:00 PM 23.0 °F - 17.6 °F 80% 29.77 in 2.2 mi Variable 2.3 mph - N/A   Overcast
1:30 PM 23.0 °F - 17.6 °F 80% 29.77 in 2.2 mi Variable 1.2 mph - N/A   Overcast
2:00 PM 24.8 °F - 17.6 °F 74% 29.77 in 2.2 mi Variable 1.2 mph - N/A   Overcast
2:30 PM 24.8 °F - 19.4 °F 80% 29.77 in 2.2 mi Variable 1.2 mph - N/A   Mostly Cloudy
3:00 PM 24.8 °F - 19.4 °F 80% 29.77 in 1.8 mi ENE 2.3 mph - N/A   Mostly Cloudy
3:30 PM 24.8 °F - 19.4 °F 80% 29.77 in 1.9 mi East 2.3 mph - N/A   Partly Cloudy
4:00 PM 24.8 °F - 19.4 °F 80% 29.77 in 1.9 mi ESE 2.3 mph - N/A   Scattered Clouds
4:30 PM 24.8 °F - 19.4 °F 80% 29.77 in 1.8 mi East 2.3 mph - N/A   Overcast
5:00 PM 24.8 °F 19.1 °F 19.4 °F 80% 29.77 in 2.2 mi ENE 4.6 mph - N/A   Mostly Cloudy
5:30 PM 24.8 °F 19.1 °F 19.4 °F 80% 29.77 in - ENE 4.6 mph - N/A   Scattered Clouds
6:00 PM 24.8 °F 19.1 °F 19.4 °F 80% 29.77 in - ENE 4.6 mph - N/A   Overcast
6:30 PM 24.8 °F 19.1 °F 19.4 °F 80% 29.77 in - East 4.6 mph - N/A   Partly Cloudy
7:00 PM 24 °F - 19 °F 72% 29.87 in 2 mi ENE 4.5 mph - -   Mist
7:00 PM 24.8 °F 19.1 °F 19.4 °F 80% 29.80 in 1.9 mi ENE 4.6 mph - N/A   Scattered Clouds
7:30 PM 23.0 °F 17.0 °F 19.4 °F 86% 29.80 in 2.2 mi ENE 4.6 mph - N/A   Overcast
8:00 PM 23.0 °F 18.4 °F 19.4 °F 86% 29.80 in 2.2 mi East 3.5 mph - N/A   Overcast
8:30 PM 23.0 °F 18.4 °F 19.4 °F 86% 29.80 in 2.2 mi East 3.5 mph - N/A   Overcast
9:00 PM 24.8 °F - 19.4 °F 80% 29.80 in 2.2 mi Variable 2.3 mph - N/A   Overcast
9:30 PM 24.8 °F - 19.4 °F 80% 29.80 in 2.2 mi Variable 1.2 mph - N/A   Overcast
10:00 PM 24.8 °F - 19.4 °F 80% 29.80 in - NNE 2.3 mph - N/A   Overcast
10:30 PM 24.8 °F 20.5 °F 19.4 °F 80% 29.80 in - North 3.5 mph - N/A   Overcast
11:00 PM 24.8 °F 20.5 °F 21.2 °F 86% 29.80 in - North 3.5 mph - N/A   Overcast
11:30 PM 24.8 °F - 21.2 °F 86% 29.80 in - Variable 1.2 mph - N/A   Overcast